Orbital Elements at Epoch 2459200.5 (2020-Dec-17.0) TDB
Reference: JPL 23 (heliocentric ecliptic J2000)
Element | Value | Uncertainty (1-sigma) | Units |
e | .1045854124628958 | 4.4685e-08 | |
a | 3.066737119220471 | 2.242e-08 | au |
q | 2.746001152691525 | 1.3296e-07 | au |
i | 14.27838680823911 | 4.8402e-06 | deg |
node | 186.4454085452447 | 2.016e-05 | deg |
peri | 2.113472026756404 | 3.3093e-05 | deg |
M | 74.3909197712527 | 2.4668e-05 | deg |
tp | 2458795.149531563072 (2019-Nov-07.64953156) | 0.00013452 | TDB |
period | 1961.612641516029 5.37 | 2.1511e-05 5.889e-08 | d yr |
n | .1835224714507216 | 2.0125e-09 | deg/d |
Q | 3.387473085749417 | 2.4765e-08 | au |
|
| | Orbit Determination Parameters
Additional Information
|